ASTRA 2G (40364 NORAD) Tracking and Keplerian Element Data

This shows tracking and keplerian element data for the satellite.

Feedback or suggestion? Click here.




ElementValue
Catalog40364
NameASTRA 2G
Epoch Orbit3455
Epoch Day159.95110656
Epoch Year2024
RAAN12.3367
Inclination0.0435
Eccentricity0.0004875
Argument of Perigee47.4968
Mean Anonmoly207.5603
Mean Motion1.00270031
Decay Rate1.49E-06
L11 40364U 14089A 24159.95110656 .00000149 00000+0 00000+0 0 9995
L22 40364 0.0435 12.3367 0004875 47.4968 207.5603 1.00270031 34559



Live tracking and technical data element details for ASTRA 2G (NORAD 40364). ASTRA 2G can be tracked NOW for your location showing map with azimuth and elevation plus other details from your city location.







IsCatalogInMostPopularTable: catalog: 40364, numindb: 605
Update: records affected: 1



GetName: 40364 ASTRA 2G

Hit Count: updated at: Sun, 23 Jun 2024 01:42:51 GMT